Regional Weather Roundup
Issued by NWS Northern Indiana

Home | Current Version | Previous Version | Graphics & Text | Print | Product List | Glossary On
Versions: 1 2 3 4 5 6 7 8 9 10 11 12 13 14 15 16 17 18 19 20 21 22 23 24 25 26 27 28 29 30 31 32 33 34 35 36 37 38 39 40 41 42 43 44 45 46 47 48 49 50
066
ASUS43 KIWX 011610
RWRIWX

KIWX WEATHER ROUNDUP
NATIONAL WEATHER SERVICE NORTHERN INDIANA
1200 PM EDT SUN MAY 01 2016

NOTE: "FAIR" INDICATES FEW OR NO CLOUDS BELOW 12,000 FEET WITH NO
SIGNIFICANT WEATHER AND/OR OBSTRUCTIONS TO VISIBILITY.

* THESE STATIONS ARE NOT UNDER NWS QUALITY CONTROL. THEY ALSO MAY NOT
  REPORT WEATHER SUCH AS PRECIPITATION OR FOG.

INZ001>027-011700-
NORTHERN INDIANA

CITY           SKY/WX    TMP DP  RH WIND       PRES   REMARKS
VALPARAISO     CLOUDY    54  50  86 N7        29.98R
MICHIGAN CITY* CLOUDY    50  50 100 CALM      29.98S
LAPORTE*       CLOUDY    55  55 100 N6        29.97S
KNOX*          CLOUDY    52  50  93 N6        29.96R
SOUTH BEND     CLOUDY    53  50  89 NE8       29.97S
ELKHART*       CLOUDY    52  52 100 MISG      29.97S
GOSHEN         CLOUDY    53  50  89 NE8       29.96S
MONTICELLO*    CLOUDY    54  51  87 NE5       29.95R FOG
LOGANSPORT*    CLOUDY    55  55 100 NE3       29.96R FOG
ROCHESTER*     CLOUDY    55  55 100 NE5       29.96S FOG
ANGOLA*        CLOUDY    52  39  62 NE5       29.96S
FORT WAYNE     CLOUDY    56  53  90 VRB3      29.97R FOG
HUNTINGTON*    CLOUDY   N/A N/A N/A CALM      29.96R HAZE
PERU/GRISSOM   CLOUDY    59  59 100 NE2       29.93S FOG
MARION*        CLOUDY    60  59  95 CALM      29.95S

$$
INZ028>050-011700-
CENTRAL INDIANA

CITY           SKY/WX    TMP DP  RH WIND       PRES   REMARKS
LAFAYETTE      CLOUDY    59  55  87 N6        29.94R
KOKOMO*        PTSUNNY   61  55  82 E3        29.94S
MUNCIE*        PTSUNNY   69  57  65 NW8       29.94R
INDIANAPOLIS   MOSUNNY   70  55  59 CALM      29.92S

$$
MIZ043>046-050>051-056>058-064>065-071>073-077>080-011700-
SOUTHWEST LOWER MICHIGAN

CITY           SKY/WX    TMP DP  RH WIND       PRES   REMARKS
BATTLE CREEK   CLOUDY    48  46  93 NE10      29.99S
BENTON HARBOR  CLOUDY    52  47  83 E7        29.98F
COLDWATER*     CLOUDY    50  50 100 NE7       29.97S FOG
HILLSDALE*     CLOUDY    50  50 100 N6        29.96R FOG
HOLLAND        CLOUDY    50  46  86 NE9       30.01R
GRAND RAPIDS   CLOUDY    49  45  86 NE13      30.01R
KALAMAZOO      CLOUDY    50  46  86 NE7       29.99R
STURGIS*       CLOUDY    49  48  97 NE8       29.96S FOG
THREE RIVERS*  CLOUDY    49  49  99 NE6       29.98R FOG

$$
OHZ001>008-015>018-024>025-011700-
NORTHWEST OHIO

CITY           SKY/WX    TMP DP  RH WIND       PRES   REMARKS
WAUSEON*         N/A     52 N/A N/A NE5       29.96S HAZE
DEFIANCE       CLOUDY    54  51  90 NE6       29.97R FOG
FINDLAY        CLOUDY    61  53  75 N3        29.94R
TOLEDO EXPRESS FOG       51  51 100 E6        29.95F VSB 1
TOLEDO METCALF CLOUDY    52  50  93 NE7       29.97S
LIMA           PTSUNNY   63  62  97 W3        29.94S FOG

$$
AND FOR LAKE MICHIGAN COASTAL AND OPEN LAKE BUOY OBSERVATIONS

STATION/POSITION TEMP    WIND        PRES    VSBY  WAVE
                 AIR SEA DIR/SP/G                  HT/PER
                 (F)     (DEG/KT/KT) (MB)    (MI)  (FT/S)
CALUMET HARBOR    44     340/  8/ 14 1015.2R
MICHIGAN CITY     44     360/ 14/ 16   N/A
BURNS HARBOR      45      40/ 13/ 18 1015.6S
SAINT JOSEPH      51     360/  6/  8 1015.9S
SOUTH LAKE BUOY   42 40   40/ 14/ 16 1016.0F         3/ 5
4 MI NW BRIDGMAN  48 48                N/A           2/ 4

$$
&&




USA.gov is the U.S. government's official web portal to all federal, state and local government web resources and services.